{"data":{"norad_id":55041,"intl_designator":"2023-001AJ","name":"SKYKRAFT-1","alt_names":[],"object_type":"PAYLOAD","status":"ACTIVE","operator":null,"country":"AUS","launch_date":"2023-01-03","launch_site_code":"AFETR","launch_vehicle":null,"mission":null,"orbit_class":"UNKNOWN","rcs_meters":null,"size_class":null,"mass_kg":null,"dimensions":null,"purposes":[],"wikipedia_slug":null,"has_3d_model":false,"image_url":null,"decayed_at":null,"tle_current":{"epoch":"2026-05-25T04:13:25.597344Z","epoch_age_seconds":55852,"freshness":"FRESH","line1":"1 55041U 23001AJ  26145.17599071  .00044977  00000+0  47008-3 0  9990","line2":"2 55041  97.3189 221.5312 0005455 147.2262 212.9336 15.64334629189459","mean_motion":15.64334629,"eccentricity":0.0005455,"inclination_deg":97.3189,"raan_deg":221.5312,"arg_perigee_deg":147.2262,"mean_anomaly_deg":212.9336,"bstar":0.00047008,"rev_number":18945,"period_min":92.051916086555,"perigee_km":371.46911524766,"apogee_km":378.8369546758,"semimajor_km":6753.2900349617,"source":"CELESTRAK","updated_at":"2026-05-25T13:37:58.810571Z"}}}